Weather Roundup
Issued by NWS Springfield, MO

Home | Current Version | Previous Version | Text Only | Print | Product List | Glossary On
Versions: 1 2 3 4 5 6 7 8 9 10 11 12 13 14 15 16 17 18 19 20 21 22 23 24 25 26 27 28 29 30 31 32 33 34 35 36 37 38 39 40 41 42 43 44 45 46 47 48 49 50
000
NZUS99 KSGF 180407
HRRSGF

HOURLY WEATHER
NATIONAL WEATHER SERVICE SPRINGFIELD MO
1000 PM CST TUE JAN 17 2017

......SGF CWA......

CITY           SKY/WX    TMP DP  RH WIND       PRES   REMARKS
SPRINGFIELD    CLOUDY    37  35  92 NW5       30.18R WCI  33
JOPLIN         CLOUDY    38  36  92 S6        30.21R WCI  33
WEST PLAINS    CLOUDY    39  36  89 NW5       30.18R
ROLLA          CLOUDY    37  36  96 W6        30.16S WCI  32
OSAGE BEACH    CLOUDY    38  35  89 W5        30.19F WCI  34
BRANSON        CLOUDY    37  36  93 W3        30.19R

......SURROUNDING SGF CWA......

CITY           SKY/WX    TMP DP  RH WIND       PRES   REMARKS
CHANUTE        CLOUDY    31  29  92 S7        30.18S WCI  24
PARSONS        CLOUDY    34  33  96 CALM      30.21R
COFFEYVILLE    CLOUDY    35  33  92 CALM      30.20R
EMPORIA        CLOUDY    31  27  85 CALM      30.14F
GROVE OK       CLOUDY    41  37  87 S6        30.24R
ROGERS AR      CLOUDY    39  36  89 SW5       30.22R
SILOAM SPRINGS CLOUDY    39  36  87 SW5       30.22R
HARRISON AR    CLOUDY    38  37  97 W3        30.19R
NEAR YELLVILLE CLOUDY    39  34  81 CALM      30.18R

......KANSAS AND MISSOURI......

CITY           SKY/WX    TMP DP  RH WIND       PRES   REMARKS
KANSAS CTY INT CLOUDY    27  24  89 S6        30.15R WCI  20
DOWNTOWN KC    CLEAR     35  33  92 CALM      30.16S
COLUMBIA       CLOUDY    38  36  92 W6        30.17S WCI  33
SEDALIA        CLOUDY    38  34  85 W5        30.18S WCI  34
ST JOSEPH      FOG       26  26 100 CALM      30.17R VSB 1/2
ST LOUIS       CLOUDY    42  35  76 W12       30.17S
SPIRIT OF STL  CLOUDY    41  37  86 W7        30.17S
KIRKSVILLE     CLOUDY    36  33  89 W3        30.14R
WICHITA        CLOUDY    36  33  89 S3        30.16R
TOPEKA         CLOUDY    31  26  82 S3        30.15F
OLATHE         CLEAR     30  30 100 S5        30.16S FOG     WCI  25

......TENNESSEE......

CITY           SKY/WX    TMP DP  RH WIND       PRES   REMARKS
MEMPHIS        CLOUDY    49  44  83 N7        30.17F
NASHVILLE      CLOUDY    53  46  77 W8        30.16R

......ARKANSAS.......

CITY           SKY/WX    TMP DP  RH WIND       PRES   REMARKS
FAYETTEVILLE   PTCLDY    36  36 100 CALM      30.21R
FT SMITH       CLOUDY    43  37  79 W7        30.22R
LITTLE ROCK    CLOUDY    47  43  86 N8        30.17S

......OKLAHOMA.......

CITY           SKY/WX    TMP DP  RH WIND       PRES   REMARKS
TULSA          CLOUDY    43  38  82 S10       30.23R
PONCA CITY     PTCLDY    40  33  76 CALM      30.18S
MCALESTER      CLOUDY    45  38  76 CALM      30.21F
OKLAHOMA CITY  CLOUDY    47  36  65 SE8       30.15F

......IOWA............

CITY           SKY/WX    TMP DP  RH WIND       PRES   REMARKS
DES MOINES     CLOUDY    32  31  96 W10       30.10S FOG     WCI  24
QUAD CITIES    CLOUDY    34  32  92 W10       30.07R FOG     WCI  26

......ILLINOIS........

CITY           SKY/WX    TMP DP  RH WIND       PRES   REMARKS
QUINCY         CLOUDY    37  35  92 W7        30.13R WCI  32
CHICAGO        DRIZZLE   35  33  92 W12       29.99R WCI  27




USA.gov is the U.S. government's official web portal to all federal, state and local government web resources and services.